[[{"header":{"parameterUnit":"m.s-1","parameterCategory":1,"la1":30.2991,"la2":30.254,"lo1":-89.0895,"lo2":-89.0444,"dy":0.0017,"dx":0.0017,"nx":28,"ny":28,"refTime":"2023-09-18T09:00:00:Z","depth":0,"parameterNumber":2,"parameterNumberName":"U-component_of_WINDS"},"data":[0,0,0,0,0,0,0,0,0,0,0,0,0,0,0,0,0,0,0,0,0,0,0,0,0,0,0,0,0,0,0,0,0,0,0,0,0,0,0,0,0,0,0,0,0,0,0,0,0,0,0,0,0,0,0,0,0,0,0.5137,0.5138,0,0.5201,0.5202,0.5203,0.5194,0.5193,0.5192,0.5191,0.5257,0.526,0.5263,0,0,0,0,0,0,0,0,0,0,0,0,0,0.5006,0.5009,0.5137,0.5138,0.5138,0.5201,0.5202,0.5203,0.5194,0.5193,0.5191,0.519,0.5256,0.526,0.5263,0,0,0,0,0,0,0,0,0,0,0,0,0,0.5066,0.501,0.5137,0.5141,0.5143,0.5201,0.5202,0.5203,0.5194,0.5193,0.5191,0.5189,0.5255,0.5259,0.5263,0.5321,0,0,0.5276,0.5278,0,0,0,0,0,0,0,0,0.5063,0.5071,0.514,0.5141,0.5143,0.5188,0.518,0.5243,0.5195,0.5175,0.5191,0.5189,0.5235,0.5241,0.5257,0.5324,0.5327,0.5276,0.5279,0.5281,0.5282,0,0,0,0,0,0,0,0.5059,0.5068,0.5162,0.5141,0.5143,0.5141,0.5147,0.5192,0.5213,0.5176,0.5176,0.5183,0.5236,0.5253,0.5258,0.5328,0.5276,0.528,0.5283,0.5284,0.5445,0.5447,0,0,0,0,0,0,0.5053,0.5065,0.516,0.5164,0.5098,0.5144,0.5152,0.5175,0.5213,0.5217,0.5185,0.5183,0.5246,0.5253,0.5261,0.5329,0.5281,0.5285,0.5287,0.5443,0.5445,0.5447,0,0,0,0,0,0,0.505,0.5062,0.5158,0.5114,0.5126,0.5148,0.5174,0.5177,0.5194,0.5219,0.5223,0.5198,0.5245,0.5255,0.5306,0.5332,0.5286,0.529,0.5441,0.5444,0.5446,0.5468,0,0,0,0,0,0,0.5047,0.5061,0.5083,0.5115,0.5129,0.5202,0.5176,0.5179,0.5201,0.5199,0.5233,0.5237,0.5245,0.53,0.531,0.5336,0.5293,0.5439,0.5442,0.5445,0.5465,0.5471,0.5476,0,0,0,0,0,0.5042,0.5087,0.5084,0.5096,0.5157,0.5203,0.5211,0.5219,0.5203,0.5225,0.5242,0.5236,0.5328,0.5305,0.5316,0.5345,0.5437,0.5441,0.5445,0.5463,0.547,0.5476,0,0,0,0,0,0,0.5058,0.5091,0.5088,0.5145,0.5171,0.5202,0.523,0.5227,0.5259,0.5256,0.5265,0.5273,0.5324,0.534,0.5314,0.5402,0.538,0.5387,0.5389,0.5397,0.5402,0.5396,0.5297,0,0,0,0,0,0.5068,0.5102,0.513,0.5177,0.5191,0.5208,0.5229,0.5233,0.526,0.5272,0.5292,0.5319,0.5354,0.5376,0.541,0.5468,0.5475,0.5493,0.5499,0.5503,0.5508,0.5539,0.5547,0.546,0.546,0.546,0,0,0.5088,0.5111,0.5133,0.5181,0.5202,0.5237,0.5217,0.5256,0.5282,0.5278,0.5326,0.5342,0.5373,0.5428,0.5453,0.5442,0.5534,0.5508,0.5512,0.5514,0.5544,0.5552,0.5559,0.5463,0.5463,0.5462,0,0,0.5144,0.5166,0.5206,0.5228,0.526,0.5271,0.5281,0.5312,0.5322,0.5371,0.5368,0.5399,0.546,0.5481,0.55,0.5565,0.556,0.5575,0.5604,0.5634,0.564,0.5646,0.5668,0.5675,0.5581,0.5581,0.5581,0,0.5166,0.5219,0.5228,0.5267,0.5288,0.5285,0.5326,0.5347,0.5388,0.5402,0.539,0.5465,0.5486,0.5545,0.556,0.5576,0.5587,0.5571,0.5639,0.5645,0.5651,0.5671,0.5679,0.5582,0.5582,0.5582,0.5582,0,0.5244,0.5281,0.531,0.5349,0.5374,0.5414,0.5428,0.5452,0.5455,0.5467,0.5517,0.5542,0.558,0.5595,0.5598,0.5654,0.5646,0.5637,0.5614,0.566,0.5679,0.5687,0.5584,0.5584,0.5583,0.5583,0,0,0.531,0.5353,0.5364,0.5381,0.5416,0.5445,0.5485,0.5522,0.5541,0.557,0.5603,0.5654,0.5645,0.5667,0.5672,0.5698,0.5745,0.5685,0.5686,0.5694,0.5807,0.5813,0.5821,0.5743,0.5745,0.5746,0.5804,0,0.5368,0.5437,0.5446,0.5508,0.5542,0.554,0.5574,0.5599,0.5612,0.5643,0.5658,0.5693,0.5679,0.5692,0.5718,0.5734,0.5768,0.573,0.5773,0.5774,0.5763,0.5832,0.5838,0.5891,0.5812,0.5813,0.5814,0,0.5444,0.5474,0.5539,0.5568,0.5583,0.5614,0.5648,0.5678,0.5706,0.5713,0.5737,0.5739,0.578,0.5758,0.5813,0.5788,0.5806,0.5816,0.5819,0.5821,0.5795,0.5835,0.5909,0.5916,0.5826,0.5825,0.5824,0,0.5483,0.554,0.5586,0.5602,0.5638,0.5659,0.5675,0.5702,0.5723,0.5754,0.5767,0.5802,0.5821,0.5847,0.5858,0.5841,0.5913,0.5892,0.5919,0.5919,0.5933,0.5932,0.6009,0.5948,0.5948,0.5948,0.5948,0,0.5545,0.5585,0.5604,0.5632,0.5676,0.5686,0.573,0.5745,0.5769,0.58,0.5801,0.583,0.5844,0.5875,0.5884,0.5928,0.5937,0.5943,0.5945,0.5942,0.5941,0.5953,0.5948,0.595,0.5949,0.5949,0.5949,0,0.5596,0.5611,0.566,0.569,0.5699,0.573,0.5756,0.5783,0.5796,0.5834,0.5844,0.5865,0.5901,0.5915,0.596,0.5966,0.6016,0.6016,0.6006,0.6006,0.6032,0.6029,0.6118,0.613,0.6063,0.6064,0.6064,0,0.5633,0.5664,0.5697,0.5717,0.5734,0.5768,0.5789,0.5801,0.5823,0.5858,0.588,0.5917,0.5946,0.6004,0.6023,0.6057,0.6056,0.6085,0.6061,0.6057,0.6054,0.6052,0.6054,0.6089,0.609,0.609,0.6091,0,0.5698,0.5704,0.5735,0.5769,0.5795,0.5822,0.5848,0.5865,0.5881,0.5906,0.5943,0.5966,0.6011,0.6047,0.6082,0.6098,0.6097,0.6098,0.6106,0.6103,0.6095,0.6098,0.6016,0.6096,0.6095,0.6095,0.6095,0.6095,0.5742,0.5768,0.5796,0.583,0.5851,0.5876,0.5902,0.5919,0.595,0.5987,0.5993,0.6032,0.6059,0.6106,0.6124,0.6155,0.6147,0.6159,0.6161,0.6164,0.6164,0.6092,0.6161,0.6161,0.6161,0.6161,0.6161,0,0.5805,0.5823,0.5855,0.5891,0.5918,0.5915,0.5944,0.5967,0.6002,0.6027,0.6056,0.6098,0.6133,0.6154,0.6189,0.6209,0.6209,0.6218,0.6215,0.6219,0.617,0.6159,0.6217,0.6217,0.6217,0.6217,0.6217,0.6217,0.5841,0.5885,0.5894,0.5948,0.5966,0.6004,0.602,0.6043,0.6063,0.611,0.6139,0.6153,0.6176,0.6213,0.6244,0.6249,0.6261,0.627,0.6274,0.6228,0.6222,0.6217,0.6206,0.6273,0.6273,0.632,0.6321,0.6321]},{"header":{"parameterUnit":"m.s-1","parameterCategory":1,"la1":30.2991,"la2":30.254,"lo1":-89.0895,"lo2":-89.0444,"dy":0.0017,"dx":0.0017,"nx":28,"ny":28,"refTime":"2023-09-18T09:00:00:Z","depth":0,"parameterNumber":3,"parameterNumberName":"V-component_of_WINDS"},"data":[0,0,0,0,0,0,0,0,0,0,0,0,0,0,0,0,0,0,0,0,0,0,0,0,0,0,0,0,0,0,0,0,0,0,0,0,0,0,0,0,0,0,0,0,0,0,0,0,0,0,0,0,0,0,0,0,0,0,1.7605,1.7603,0,1.7442,1.744,1.7438,1.7313,1.7312,1.7311,1.7309,1.7134,1.713,1.7127,0,0,0,0,0,0,0,0,0,0,0,0,0,1.78,1.7797,1.7605,1.7603,1.7601,1.7442,1.744,1.7437,1.7313,1.7312,1.731,1.7309,1.7135,1.7131,1.7126,0,0,0,0,0,0,0,0,0,0,0,0,0,1.7684,1.7796,1.7605,1.752,1.7511,1.7442,1.7439,1.7437,1.7313,1.7312,1.731,1.7308,1.7136,1.7131,1.7126,1.7127,0,0,1.7109,1.7107,0,0,0,0,0,0,0,0,1.7691,1.7677,1.7534,1.7526,1.7515,1.7396,1.7444,1.7332,1.7314,1.7388,1.7309,1.7307,1.7222,1.7209,1.7182,1.7118,1.7111,1.7109,1.7105,1.7103,1.7102,0,0,0,0,0,0,0,1.7699,1.7683,1.754,1.7532,1.7521,1.7487,1.7468,1.7422,1.7316,1.7381,1.7372,1.7355,1.7216,1.7188,1.7177,1.7108,1.7109,1.7104,1.7101,1.7099,1.7033,1.7034,0,0,0,0,0,0,1.7721,1.7691,1.7545,1.7535,1.7601,1.7485,1.7464,1.7436,1.7316,1.7297,1.7356,1.735,1.7198,1.7184,1.717,1.716,1.7103,1.7098,1.7095,1.7031,1.7033,1.7035,0,0,0,0,0,0,1.7726,1.771,1.7552,1.761,1.7588,1.7483,1.7452,1.7433,1.7405,1.7298,1.7277,1.7347,1.7196,1.7178,1.7138,1.7153,1.7096,1.7091,1.7029,1.7032,1.7034,1.7143,0,0,0,0,0,0,1.7732,1.7712,1.7713,1.7611,1.7585,1.7525,1.7453,1.7432,1.7397,1.7386,1.7284,1.7265,1.7193,1.7147,1.7133,1.7144,1.7087,1.7028,1.703,1.7033,1.7138,1.7149,1.7158,0,0,0,0,0,1.774,1.775,1.7714,1.7697,1.7585,1.7527,1.7511,1.7431,1.7399,1.7397,1.7328,1.7268,1.7155,1.7144,1.7127,1.7137,1.7026,1.703,1.7033,1.7133,1.7147,1.7158,0,0,0,0,0,0,1.7854,1.7735,1.7694,1.7672,1.7611,1.7506,1.7502,1.7448,1.7392,1.7384,1.7284,1.7262,1.7232,1.7181,1.7171,1.713,1.7082,1.7082,1.7164,1.7176,1.7187,1.7198,1.7082,0,0,0,0,0,1.7877,1.7842,1.7739,1.7729,1.7701,1.7607,1.7579,1.7522,1.7453,1.7426,1.7354,1.7287,1.7235,1.7203,1.715,1.713,1.7104,1.7129,1.7139,1.7148,1.7148,1.713,1.7139,1.7046,1.7046,1.7046,0,0,1.7923,1.7854,1.7837,1.775,1.7696,1.7659,1.7586,1.755,1.7521,1.7419,1.7377,1.7322,1.724,1.721,1.7193,1.7166,1.7169,1.7152,1.7161,1.7155,1.7135,1.7144,1.7152,1.7048,1.7048,1.7047,0,0,1.7988,1.7934,1.7918,1.7866,1.7786,1.7723,1.772,1.7623,1.7583,1.754,1.7462,1.7424,1.7339,1.7283,1.7243,1.7287,1.7228,1.7272,1.7325,1.7308,1.7316,1.7322,1.7334,1.7339,1.7273,1.7273,1.7274,0,1.8055,1.7999,1.7917,1.7885,1.7848,1.7757,1.7739,1.7691,1.7596,1.7571,1.7543,1.7433,1.7372,1.7325,1.7336,1.7308,1.7298,1.7282,1.7322,1.7327,1.7331,1.7341,1.7347,1.7279,1.7278,1.7278,1.7277,0,1.8083,1.8045,1.8042,1.7955,1.7917,1.7893,1.7804,1.7775,1.7722,1.7662,1.7617,1.754,1.7469,1.7454,1.7401,1.7399,1.7385,1.7342,1.7291,1.7347,1.7355,1.7358,1.7287,1.7285,1.7283,1.7282,0,0,1.8213,1.8082,1.8082,1.804,1.7945,1.7912,1.7882,1.7815,1.7791,1.7729,1.7698,1.7628,1.7587,1.7542,1.7482,1.7468,1.7503,1.7425,1.7421,1.7439,1.7491,1.7523,1.7529,1.7465,1.7465,1.7465,1.7497,0,1.826,1.8204,1.8129,1.8097,1.8059,1.7972,1.7945,1.7882,1.7825,1.7781,1.7717,1.7667,1.7618,1.759,1.7573,1.7503,1.7511,1.7499,1.7431,1.743,1.7451,1.7533,1.7567,1.76,1.75,1.75,1.7501,0,1.8307,1.8252,1.8217,1.8123,1.8104,1.8082,1.8013,1.7974,1.7899,1.7858,1.7809,1.7744,1.7704,1.7662,1.7603,1.7597,1.7564,1.7525,1.7524,1.7512,1.7467,1.752,1.7609,1.7613,1.7505,1.7505,1.7505,0,1.8402,1.8318,1.8286,1.8253,1.8144,1.813,1.8083,1.8007,1.7971,1.791,1.7884,1.7819,1.7782,1.7732,1.765,1.7627,1.7598,1.755,1.7559,1.7561,1.7555,1.7556,1.7637,1.754,1.754,1.754,1.754,0,1.846,1.8441,1.8326,1.8306,1.8281,1.8194,1.817,1.8115,1.8048,1.8013,1.7934,1.7902,1.7797,1.7752,1.7687,1.7646,1.7631,1.7593,1.7576,1.7599,1.7603,1.7574,1.7568,1.7541,1.7541,1.7541,1.754,0,1.856,1.8483,1.8441,1.8342,1.8316,1.8302,1.8215,1.8189,1.8129,1.8084,1.8069,1.7971,1.7913,1.7828,1.7744,1.77,1.7668,1.7641,1.7694,1.7683,1.7696,1.7695,1.7758,1.776,1.7667,1.7668,1.7669,0,1.8601,1.8585,1.8484,1.8456,1.8413,1.8369,1.8332,1.8245,1.8209,1.8122,1.8107,1.8044,1.7988,1.7899,1.7818,1.7752,1.7721,1.7748,1.7711,1.7733,1.7717,1.7718,1.7714,1.7756,1.7758,1.7759,1.776,0,1.8681,1.8643,1.8595,1.8533,1.8491,1.8437,1.8379,1.836,1.826,1.8223,1.8165,1.8122,1.8037,1.7973,1.7897,1.7844,1.7784,1.7773,1.7771,1.7792,1.7822,1.7803,1.7714,1.7771,1.777,1.7769,1.7769,1.7768,1.8749,1.873,1.8656,1.8603,1.8551,1.8499,1.847,1.8406,1.8356,1.8282,1.8233,1.8176,1.8099,1.799,1.7941,1.7893,1.7867,1.7866,1.7864,1.7864,1.7871,1.7834,1.7879,1.7878,1.7878,1.7878,1.7877,0,1.8821,1.877,1.8723,1.8645,1.8604,1.8555,1.8488,1.8455,1.8407,1.8342,1.8289,1.822,1.8158,1.8074,1.8004,1.7982,1.7952,1.7966,1.7965,1.7953,1.7899,1.7906,1.7991,1.7991,1.7991,1.7991,1.7991,1.7991,1.8854,1.8817,1.8771,1.8707,1.8654,1.86,1.8565,1.8515,1.8462,1.839,1.8339,1.8286,1.8211,1.8136,1.8075,1.8052,1.8028,1.805,1.8017,1.7968,1.7957,1.7947,1.7953,1.8047,1.8047,1.8074,1.8075,1.8075]}]]